RH
60 56 48 45 43 58 63 53 63 71 63 68 79 73 77 69 77 79 80 74 65 56
65 59 53 48 45 58 63 61 70 75 70 75 78 80 73 71 79 81 82 76 69 49
67 64 63 68 56 61 66 71 76 79 71 71 78 77 72 78 87 97 86 74 62 50
73 70 80 84 82 73 78 80 84 78 77 71 71 70 71 81 95 93 83 71 56 45
79 77 76 77 82 79 76 82 84 73 70 68 68 71 79 83 86 91 82 71 57 44
83 87 83 79 78 82 86 81 88 77 75 72 71 75 80 80 91 85 88 71 58 43
89 94 95 89 88 88 87 84 88 90 84 78 82 83 82 86 92 94 85 69 52 54
97 98 97 95 98 97 95 93 93 92 91 86 84 81 79 79 88 79 78 71 58 59
97 98 96 97 98 95 97 99 94 94 91 87 82 81 78 84 81 78 79 69 59 66
96 98 97 96 95 93 99 98 98 96 93 91 84 84 86 82 79 80 81 71 64 60
96 97 98 99 99 99 94 95 96 97 98 95 93 95 93 91 86 82 84 72 66 63
97 97 97 98 98 96 92 93 98 97 98 95 95 95 98 97 91 84 82 74 73 73
97 97 97 97 96 96 94 95 97 99 98 98 98 99 97 98 94 85 82 77 77 76
95 93 95 97 97 96 96 97 98 98 98 98 98 98 98 99 96 91 87 82 88 87